Weather in Kazanskaya

Russia / Krasnodar Krai     45°24′28″N   40°26′28″E
temp.,
°C
wind,
m/s
gust,
m/s
humid.,
%
clouds,
%
prec.,
mm/h
press.,
hPa
HPBL,
m
19 april, mon
mon1900:00+11e2296100 0.1 101545
03:00+11sse1196100 0.8 101511
06:00+12sw3498100 0.9 1015107
09:00+12sw2399100 3.2 1015135
12:00+12wsw2399100 10.9 1014138
15:00+15wsw41091100 11.8 1014951
18:00+13nnw3497100 0.9 1014124
21:00+11ese2298100 2.1 101446
20 april, tue
tue2000:00+13e3597100 0.3 1011120
03:00+12nnw2399100 9.4 101184
06:00+12e71596100 2.4 1005458
09:00+16ese5783100 2.4 1003380
12:00+20wsw7106950 0.1 10051316
15:00+20wsw8146799 0.1 10061551
18:00+14wsw10176727 0.0 1008806
21:00+10wsw11188194 0.0 1012859
21 april, wed
wed2100:00+9wsw714820 0.0 1014770
03:00+8sw49943 0.0 1015304
06:00+7w2694100 0.0 1017171
09:00+11wsw4578100 0.0 1018809
12:00+13sw3568100 0.1 10191303
15:00+15sw456977 0.2 10181194
18:00+14ssw35785 0.8 1019277
21:00+10sse359045 0.9 102089
22 april, thu
thu2200:00+9sw2292100 0.0 102020
03:00+8w2390100 0.0 102146
06:00+8wnw2292100 0.0 102253
09:00+12wsw227550 0.0 1023566
12:00+16wsw235994 0.0 10221254
15:00+17w335432 0.0 10211646
18:00+15nw346846 0.0 1022159
21:00+12n116949 0.0 102310
23 april, fri
fri2300:00+12ssw226943 0.0 102334
03:00+9sw12843 0.0 102311
06:00+8w11880 0.0 102310
09:00+14nw11700 0.0 1024499
12:00+17nw22563 0.2 10231511
15:00+18wnw234736 0.2 10212113
18:00+17nnw22624 0.0 102154
21:00+12ne22650 0.0 102112